THORAD AGENA D DEB, 22533

Orbit data source: Space-Track

THORAD AGENA D DEB, 22533 is space debris in SSO originally from a launch on Wed, 08 Apr 1970 UTC launched from the Air Force Western Test Range (AFWTR). Debris objects in space refer to the collection of defunct objects orbiting the Earth. Examples of debris include non-operational satellites, rocket bodies, and fragments generated from explosions, collisions, or faulty payload assembly.

Loading next visibility...
Identifier
22533, 1970-025QP
Orbit
SSO
Country
Flag of USUS
Related business
Manufacturer
Unknown
Mission
Spacecraft
Bus & Motor
Unknown
Mass
Unknown
Launch date (UTC)
1970-04-08 (56 years ago)
Launch vehicle
Unknown
Launch site
Air Force Western Test Range (AFWTR)
Object type
Payload
Rocket body
Debris
Shape & HBR
Unknown shape, 0.1 m
Radar Cross Section
Medium (>0.1 m² and <1 m²)

Expand to show TLE details & history
Last TLE update: 12 hours ago

TLE from 12 hours ago
0 THORAD AGENA D DEB
1 22533U 70025QP  26256.18822316  .00000885  00000-0  10214-2 0  9992
2 22533 100.1039  85.1498 0004875  26.8511  38.0595 13.72448967665382
Epoch: 2026-09-13T04:31Z
TLE epoch observation values (Epoch: 2026-09-13T04:31:02.481Z)
Latitude
63.19822°
Longitude
4.65973°
Altitude
998.736 km
Speed
7.36 km/s
True Right ascension
04h 18m 25s
True Declination
63° 03' 51"
Sunlit
Object was in daylight at epoch
Visualization orbit readout
Latitude
Unknown
Longitude
Unknown
Altitude
Unknown
Speed
Unknown
Apparent Right ascension
Unknown
Apparent Declination
Unknown
Sunlit
N/A
Visualization observer readout
Local Sidereal Time
08:36:14
Azimuth
Unknown
Elevation
Unknown
Doppler factor
Unknown
Orbital elements
Apogee altitude
991.676 km
Perigee altitude
984.494 km
Semi-major axis
7,366.222 km
Eccentricity
0.00049
Inclination
100.1039°
RAAN
85.1498°
Arg. of periapsis
26.8511°
True anomaly
38.09396°
Mean anomaly
38.0595°
Eccentric anomaly
38.07673°
Mean motion
3.43302 °/min
Orbital period
104.86 mins
BSTAR
0.0010214

Documentation

Showing up to 5 results
|